Weather History for KPAH - August, 2013

Change the Weather History Date:

Thursday, August 15, 2013

  Actual Average Record
Temperature  
Mean Temperature 65 °F 78 °F  
Max Temperature 77 °F 89 °F 103 °F (1954)
Min Temperature 53 °F 67 °F 49 °F (2004)
Degree Days  
Heating Degree Days 0 0  
Month to date heating degree days 0 0  
Since 1 June heating degree days 0 4  
Since 1 July heating degree days 0 0  
Cooling Degree Days 0 13  
Month to date cooling degree days 139 196  
Year to date cooling degree days 957 1119  
Since 1 June cooling degree days 779 947  
Growing Degree Days 15 (Base 50)    
Moisture  
Dew Point 55 °F    
Average Humidity 74    
Maximum Humidity 100    
Minimum Humidity 47    
Precipitation  
Precipitation 0.00 in 0.08 in 1.17 in (1966)
Month to date precipitation 3.13 1.42  
Year to date precipitation 40.19 31.14  
Snow  
Snow 0.00 in 0.00 in - ()
Month to date snowfall 0.0 0.0  
Since 1 June snowfall 0.0 0.0  
Since 1 July snowfall 0.0 0.0  
Snow Depth 0.00 in    
Sea Level Pressure  
Sea Level Pressure 30.08 in    
Wind  
Wind Speed 4 mph (NE)    
Max Wind Speed 16 mph    
Max Gust Speed 25 mph    
Visibility 10 miles    
Events      
T = Trace of Precipitation, MM = Missing Value Source: NWS Daily Summary

Daily Weather History Graph

Daily Weather History Graph

Search for Another Location

Airport or City:

Trip Planner

Search our weather history database for the weather conditions in past years. The results will help you decide how hot, cold, wet, or windy it might be!

Date:

Astronomy

Aug. 15, 2013 Rise Set
Actual Time 6:12 AM CDT 7:46 PM CDT
Civil Twilight 5:44 AM CDT 8:13 PM CDT
Nautical Twilight 5:11 AM CDT 8:47 PM CDT
Astronomical Twilight 4:35 AM CDT 9:22 PM CDT
Moon 3:00 PM CDT (8/15) 12:23 AM CDT (8/15)
Length of Visible Light 14h 29m
Length of Day
13h 34m
Waxing Gibbous, 64% of the Moon is Illuminated
Aug 15
Waxing Gibbous
Aug 20
Full
Aug 28
Last Quarter
Sep 5
New
Sep 12
First Quarter

Hourly Weather History & Observations

Time (CDT) Temp. Dew Point Humidity Pressure Visibility Wind Dir Wind Speed Gust Speed Precip Events Conditions
12:53 AM 59.0 °F 54.0 °F 83% 30.11 in 10.0 mi Calm Calm - N/A   Clear
1:53 AM 55.0 °F 54.0 °F 96% 30.10 in 10.0 mi Calm Calm - N/A   Clear
2:53 AM 54.0 °F 53.1 °F 97% 30.09 in 10.0 mi Calm Calm - N/A   Clear
3:53 AM 55.0 °F 53.1 °F 93% 30.09 in 10.0 mi Calm Calm - N/A   Clear
4:53 AM 53.1 °F 52.0 °F 96% 30.09 in 10.0 mi Calm Calm - N/A   Clear
5:53 AM 54.0 °F 52.0 °F 93% 30.09 in 10.0 mi Calm Calm - N/A   Clear
6:53 AM 55.0 °F 53.1 °F 93% 30.11 in 10.0 mi Calm Calm - N/A   Clear
7:53 AM 61.0 °F 55.9 °F 83% 30.12 in 10.0 mi ENE 5.8 mph - N/A   Clear
8:53 AM 64.9 °F 55.9 °F 73% 30.12 in 10.0 mi NE 4.6 mph - N/A   Clear
9:53 AM 69.1 °F 57.0 °F 65% 30.12 in 10.0 mi NE 4.6 mph - N/A   Clear
10:53 AM 73.0 °F 57.0 °F 57% 30.12 in 10.0 mi ENE 8.1 mph - N/A   Clear
11:53 AM 73.9 °F 55.9 °F 53% 30.10 in 10.0 mi ENE 11.5 mph - N/A   Clear
12:53 PM 73.9 °F 55.9 °F 53% 30.09 in 10.0 mi ENE 9.2 mph - N/A   Partly Cloudy
1:53 PM 75.9 °F 55.9 °F 50% 30.07 in 10.0 mi NE 9.2 mph - N/A   Clear
2:53 PM 75.9 °F 57.0 °F 52% 30.06 in 10.0 mi NNE 10.4 mph - N/A   Clear
3:53 PM 75.9 °F 55.9 °F 50% 30.04 in 10.0 mi NE 11.5 mph 16.1 mph N/A   Scattered Clouds
4:53 PM 77.0 °F 55.9 °F 48% 30.04 in 10.0 mi NNE 5.8 mph - N/A   Partly Cloudy
5:53 PM 75.0 °F 55.0 °F 50% 30.04 in 10.0 mi ENE 10.4 mph - N/A   Clear
6:53 PM 73.0 °F 55.0 °F 53% 30.04 in 10.0 mi NE 8.1 mph - N/A   Clear
7:53 PM 68.0 °F 57.0 °F 68% 30.06 in 10.0 mi NNE 4.6 mph - N/A   Clear
8:53 PM 62.1 °F 57.9 °F 86% 30.06 in 10.0 mi Calm Calm - N/A   Clear
9:53 PM 61.0 °F 57.9 °F 90% 30.06 in 10.0 mi Calm Calm - N/A   Clear
10:53 PM 59.0 °F 57.0 °F 93% 30.06 in 10.0 mi Calm Calm - N/A   Clear